Temperature
14 14 14 14 14 13 13 13 13 13 13 13 13 13 13 12 13 13 12 12 12 12 12 12 12 12 12 12 12 12 12 12 12 11 11 11 11 11 11 11 10 11 11
13 13 13 13 13 13 13 13 13 13 12 12 12 12 12 12 12 12 12 12 12 12 12 12 12 12 12 12 12 11 11 11 11 11 11 11 10 10 10 10 10 10 10
13 13 13 13 13 13 12 12 12 12 12 12 12 12 12 12 12 12 12 12 12 12 11 11 11 11 11 11 11 11 11 11 11 11 10 10 10 10 10 10 10 10 10
13 13 13 13 12 12 12 12 12 12 12 12 12 12 11 11 11 11 11 11 11 11 11 11 11 11 11 11 11 11 11 10 10 10 10 10 9 9 10 10 10 10 10
13 12 12 12 12 12 12 12 12 12 11 11 11 11 11 11 11 11 11 11 11 11 11 11 11 11 11 11 11 11 10 10 10 10 10 9 9 9 9 9 9 9 9
12 12 12 12 12 11 11 11 11 11 11 11 11 11 11 11 11 11 11 10 10 10 10 10 10 10 10 10 10 10 10 10 10 9 9 9 9 9 9 9 9 9 8
12 12 12 11 11 11 11 11 11 11 11 10 10 10 10 10 10 10 10 10 10 10 10 10 10 10 10 10 10 10 9 9 9 9 9 9 9 9 9 9 9 8 9
11 11 11 11 11 10 10 10 10 10 10 10 10 10 10 10 10 10 10 10 10 9 10 10 9 9 9 9 9 9 9 9 9 9 9 9 9 9 9 9 8 8 8
11 11 11 10 10 10 10 10 10 10 10 10 9 9 9 9 9 9 9 9 9 9 9 9 9 9 9 9 9 9 9 9 9 9 8 8 8 8 8 8 8 8 8
10 10 10 10 10 10 9 9 9 9 9 9 9 9 9 9 9 9 9 9 9 9 9 9 9 9 9 8 8 8 8 8 8 8 8 8 8 8 8 8 8 8 7
10 10 9 9 9 9 9 9 9 9 9 9 9 8 8 8 8 9 8 8 8 8 8 8 8 8 8 8 8 8 8 8 8 8 8 8 7 7 8 7 7 7 7
10 9 9 9 9 9 9 9 9 9 8 8 8 8 8 8 8 8 8 8 8 8 8 8 8 8 8 8 7 7 7 7 7 7 7 7 7 7 7 7 7 7 7
9 9 8 8 8 8 8 8 8 8 8 8 8 7 7 7 7 8 8 8 7 7 7 7 7 7 7 7 7 7 7 7 7 7 6 7 7 7 6 6 6 6 6
9 8 8 8 8 8 8 8 8 8 8 8 7 7 7 7 7 7 7 7 7 7 7 7 7 7 7 7 7 6 6 6 6 6 6 6 6 6 6 6 6 6 5
8 8 8 8 8 7 7 7 7 7 7 7 7 7 7 7 7 7 7 7 7 7 6 6 6 6 6 6 6 6 6 6 6 6 6 6 6 5 5 5 5 5 5
8 8 8 8 7 7 7 7 7 7 7 7 7 7 7 7 7 7 7 7 6 6 6 6 6 6 6 5 5 5 5 5 5 5 5 5 5 5 5 5 4 4 4
8 8 7 7 7 7 7 7 7 7 7 7 6 6 6 6 6 6 6 6 6 6 6 6 5 5 5 5 5 5 5 5 5 5 4 4 4 4 4 4 4 4 4
7 7 7 7 7 7 6 6 6 6 6 6 6 6 6 6 6 6 6 6 5 5 5 5 5 5 5 5 4 4 4 4 4 4 4 4 4 4 3 3 3 3 3
7 7 7 7 6 6 6 6 6 6 6 6 6 6 6 6 6 6 5 5 5 5 5 5 5 5 4 4 4 4 4 4 4 4 4 3 3 3 3 3 3 3 3
7 7 7 6 6 6 6 6 5 5 5 5 5 5 5 5 5 5 5 5 5 5 5 5 4 4 4 4 4 4 4 4 4 3 3 3 3 2 2 2 2 2 2
6 6 6 6 6 5 5 5 5 5 5 5 5 5 5 5 5 5 5 5 5 4 4 4 4 4 4 4 4 3 3 3 3 3 3 2 2 2 2 2 2 2 2
6 6 6 5 5 5 5 5 5 5 5 5 5 5 5 5 4 4 4 4 4 4 4 4 4 3 3 3 3 3 3 3 3 3 2 2 2 2 2 1 1 1 1
6 5 5 5 5 5 5 5 5 5 4 4 4 4 4 4 4 4 4 4 4 4 3 3 3 3 3 3 3 3 2 2 2 2 2 2 1 1 1 1 1 1 1
5 5 5 5 5 5 4 4 4 4 4 4 4 4 4 4 4 4 4 4 3 3 3 3 3 3 3 2 2 2 2 2 2 1 1 1 1 1 1 0 0 0 0
5 4 4 4 4 4 4 4 4 4 4 4 4 3 3 3 3 3 3 3 3 3 3 3 2 2 2 2 2 2 2 1 1 1 1 1 1 0 0 -0 -0 -0 -0
4 4 4 4 4 4 4 4 3 3 3 3 3 3 3 3 3 3 3 3 3 3 2 2 2 2 2 1 1 1 1 1 0 0 0 0 0 -0 -0 -0 -1 -1 -1
Wind_Speed
2 2 2 2 2 2 1 1 2 2 2 2 2 2 2 2 2 2 2 2 2 2 3 2 3 2 2 1 1 1 1 1 2 2 1 0 1 1 2 2 3 3 4
2 2 2 2 3 2 2 2 2 2 3 3 3 2 2 2 2 2 3 3 3 3 3 3 3 2 2 2 2 2 1 2 2 2 1 1 1 1 2 1 1 2 3
2 2 2 2 2 3 3 3 3 3 3 2 3 3 3 3 3 2 3 3 3 3 3 3 3 2 2 2 2 2 2 1 2 2 2 1 1 0 0 1 1 1 2
2 2 3 3 3 3 3 3 3 3 3 3 3 2 2 2 3 2 2 3 3 3 3 3 2 2 2 2 2 2 1 1 1 2 2 1 1 1 1 1 1 1 2
2 3 2 2 2 2 2 3 3 3 3 2 2 1 1 1 1 1 2 2 2 3 3 2 2 1 1 0 1 1 1 1 1 1 2 1 1 1 1 1 1 2 3
2 2 1 1 1 2 2 2 2 3 3 3 3 2 1 0 1 2 0 2 2 2 3 2 1 2 1 1 1 2 2 2 3 2 2 3 3 2 2 2 1 1 2
2 1 1 1 1 1 2 2 2 3 3 3 2 2 2 2 1 1 1 1 2 2 2 1 1 1 1 1 2 2 3 3 3 3 3 4 4 3 2 2 2 3 3
1 2 1 1 1 1 2 2 2 3 2 2 2 3 2 2 2 1 1 1 2 2 2 2 2 1 0 1 0 1 2 2 3 3 3 3 2 2 3 3 3 2 2
1 2 1 1 1 1 2 3 3 3 2 2 3 3 3 3 3 2 1 2 2 2 2 2 1 1 1 1 0 1 2 2 3 2 1 2 2 1 1 1 1 1 2
1 1 1 1 1 2 3 3 2 2 2 2 2 2 3 3 2 2 2 2 2 2 1 1 1 0 1 1 1 1 2 2 1 1 1 2 3 3 3 3 3 2 2
1 1 1 1 2 2 2 2 2 2 2 2 2 2 2 2 3 3 1 2 2 2 2 1 1 0 0 1 1 1 3 3 1 1 1 1 2 2 3 3 3 3 2
0 1 1 1 2 2 1 2 2 3 3 2 2 2 2 2 3 3 2 2 2 2 2 1 1 0 0 1 2 3 3 2 1 1 1 1 1 1 1 2 2 2 2
0 1 1 2 2 2 2 2 3 3 3 3 2 2 2 2 2 2 3 4 3 2 1 1 1 1 1 1 2 2 1 0 1 1 1 1 1 1 1 0 1 1 2
1 2 2 1 1 1 1 1 2 3 3 3 3 3 3 2 2 2 2 3 3 2 2 1 1 1 1 1 1 0 1 0 0 1 1 1 1 0 1 0 0 1 1
2 2 1 1 1 1 0 1 2 2 3 3 3 3 3 3 3 3 3 2 2 3 1 1 1 1 1 0 0 0 0 0 1 1 0 1 1 1 1 0 0 1 1
1 1 1 1 1 1 1 1 2 2 2 3 3 4 3 3 3 3 3 2 3 2 1 2 2 2 2 2 1 1 1 1 1 1 0 1 1 1 1 1 1 1 2
2 2 1 1 2 2 2 2 2 2 2 2 3 3 4 3 3 4 3 2 1 2 2 2 2 2 2 2 2 1 1 1 0 0 1 1 1 1 1 1 1 1 2
2 2 2 1 2 2 2 2 2 2 2 2 2 3 4 4 3 3 3 2 2 3 2 2 2 2 2 1 1 1 1 0 0 0 1 1 1 1 1 1 2 2 2
2 1 1 1 1 2 2 2 2 2 2 2 1 2 4 4 3 3 4 3 4 4 3 2 2 2 2 1 1 1 1 1 1 0 1 1 1 1 1 2 2 2 1
1 2 2 1 1 2 2 2 2 2 2 2 2 2 2 2 2 3 3 3 4 4 3 3 2 2 2 2 1 1 1 1 1 0 1 1 1 1 2 2 1 1 1
1 2 2 2 2 2 2 2 2 2 2 2 2 2 2 3 4 4 4 4 4 4 3 3 2 2 2 2 2 2 1 1 1 1 1 1 1 2 1 1 1 1 1
1 2 2 2 2 2 2 2 2 2 2 2 2 2 3 2 2 3 3 3 3 3 3 3 2 2 3 3 2 2 2 1 1 1 1 1 1 1 1 1 1 1 1
2 2 2 2 1 2 2 2 2 2 2 2 2 2 2 2 2 2 3 3 3 2 2 3 2 2 2 1 1 2 2 2 2 1 1 1 1 1 1 1 2 2 2
2 2 2 2 2 2 2 2 2 2 2 2 2 2 2 2 2 2 2 2 2 3 3 3 3 3 3 2 1 1 1 0 0 0 1 1 1 1 1 1 2 2 2
2 2 2 2 2 2 1 1 1 2 1 1 1 1 2 1 2 2 1 2 3 3 3 3 3 3 3 2 2 1 1 1 1 1 0 1 1 1 1 2 2 1 1
2 2 2 2 2 1 1 1 1 1 0 0 0 1 1 1 2 2 1 2 3 3 3 3 2 2 3 3 2 2 1 1 1 1 1 1 1 1 1 1 1 1 1
Wind_Direction
226 237 233 210 197 210 213 234 236 203 175 184 203 204 205 209 210 201 219 209 221 223 222 222 222 205 197 209 211 229 222 179 226 286 275 144 105 128 106 135 148 157 168
243 246 246 229 203 202 212 227 230 201 195 202 203 213 212 206 209 211 225 222 222 224 226 223 225 218 213 210 206 219 217 192 177 227 260 223 242 202 160 183 151 170 172
273 254 255 245 223 210 213 219 232 208 208 213 216 209 206 206 202 218 225 232 232 234 229 227 230 210 222 228 213 220 225 213 171 188 239 239 251 189 91 294 236 198 198
275 259 248 241 229 216 214 224 239 207 208 214 223 214 203 187 197 214 230 231 242 254 248 232 228 205 206 225 223 226 212 201 186 186 211 228 234 225 142 255 295 283 265
260 264 259 253 225 217 216 230 232 203 207 194 231 214 180 176 204 185 240 249 246 266 266 247 223 162 120 213 242 240 207 202 199 206 205 217 244 218 222 233 249 277 272
254 257 250 236 218 230 234 239 218 197 192 187 206 182 164 177 55 38 307 248 253 251 266 263 222 178 166 224 246 247 230 208 205 210 222 217 232 234 233 221 219 255 269
278 274 241 219 205 237 280 276 206 199 195 192 190 163 159 160 131 73 347 278 255 251 249 249 253 229 175 217 252 257 262 253 232 215 217 223 223 222 207 218 227 236 246
269 267 245 217 197 215 259 268 221 198 192 194 186 176 177 190 157 136 316 261 256 260 254 241 217 188 167 89 282 275 263 261 245 229 225 226 220 212 206 210 222 248 267
275 272 265 223 188 215 250 255 228 207 206 205 196 184 187 193 188 171 163 233 245 257 269 287 195 166 293 304 230 244 257 271 260 239 238 234 219 215 183 136 187 213 270
270 275 270 226 208 218 235 241 226 216 212 210 205 194 185 175 170 173 184 215 243 255 256 264 226 203 324 323 243 246 251 267 270 264 265 272 238 216 208 196 188 194 239
281 270 266 243 233 225 216 219 202 210 209 218 217 205 189 168 170 172 188 212 227 246 250 249 246 333 22 287 287 252 274 284 271 248 240 228 222 214 212 213 201 193 211
352 259 239 249 252 242 200 201 197 202 206 217 218 216 207 184 171 187 214 253 273 248 251 231 210 171 356 293 305 307 300 313 279 261 254 229 220 231 230 221 221 220 244
343 265 236 243 243 216 207 216 208 209 201 210 211 214 220 203 186 202 227 252 274 268 261 253 238 201 239 243 286 311 327 297 224 250 265 254 232 235 253 276 280 295 313
247 259 234 227 232 212 234 244 220 211 204 209 214 216 216 210 194 204 214 229 247 271 280 245 225 232 226 229 229 270 334 338 139 249 293 300 342 332 309 340 310 302 312
262 267 241 214 222 213 251 281 248 232 224 214 218 215 208 220 227 220 216 231 236 236 245 188 145 157 162 137 180 242 303 343 349 325 306 331 326 306 305 3 334 294 272
273 282 256 202 204 211 209 306 340 256 229 224 225 219 216 213 223 223 225 241 268 240 192 195 201 192 191 191 202 215 250 285 295 345 334 308 299 290 288 311 304 291 282
253 269 263 221 212 213 213 223 263 311 308 267 236 222 220 218 216 220 219 224 217 168 175 209 217 208 208 203 201 211 234 256 270 264 306 301 293 290 289 283 280 289 285
242 249 259 237 228 227 232 236 233 233 245 259 251 224 219 213 205 208 199 166 189 187 195 210 216 218 214 213 210 213 220 226 285 250 275 292 295 303 305 285 267 266 272
247 230 231 244 245 237 237 241 244 241 232 224 219 237 217 201 197 200 185 190 196 199 204 208 211 212 205 202 185 180 198 208 210 232 282 296 291 302 304 303 299 293 283
265 263 263 242 242 239 239 234 232 238 244 233 234 233 204 180 198 205 199 198 203 206 205 204 201 200 196 192 181 182 205 218 203 242 276 283 288 282 282 294 294 284 266
261 247 253 254 240 239 237 239 233 227 236 236 233 231 211 202 205 200 196 198 205 207 202 196 190 190 191 189 185 185 196 215 209 225 265 286 290 290 295 296 292 281 272
247 236 238 244 250 248 251 248 245 236 234 238 232 221 210 215 212 199 195 197 201 202 196 189 185 184 185 184 184 187 197 216 231 236 254 275 286 289 301 306 301 298 271
248 243 243 250 255 264 264 261 257 248 242 236 223 212 210 212 206 200 194 187 179 172 153 152 167 167 142 135 149 176 196 216 233 236 244 273 282 284 285 287 287 292 276
258 242 235 242 242 239 250 262 264 262 252 234 222 209 197 193 184 176 176 154 151 143 137 139 148 156 150 131 120 133 148 264 309 236 208 227 259 280 289 284 275 269 269
256 245 234 234 230 233 240 254 272 281 273 236 205 182 166 156 147 139 141 144 136 135 135 138 140 142 141 141 132 118 143 118 45 7 56 179 212 253 263 276 276 274 282
255 251 243 239 229 230 231 241 266 269 212 142 123 126 134 130 123 122 139 147 139 136 131 124 131 139 144 144 139 128 115 91 69 43 45 136 186 231 263 276 282 275 269
Height
1503 1503 1503 1504 1504 1505 1505 1506 1507 1508 1508 1508 1509 1510 1511 1512 1513 1513 1514 1515 1515 1516 1517 1517 1518 1518 1518 1518 1518 1518 1518 1518 1518 1518 1518 1518 1517 1517 1516 1516 1515 1515 1515
1500 1500 1500 1501 1501 1502 1502 1503 1504 1504 1505 1505 1506 1507 1508 1509 1510 1510 1511 1512 1513 1513 1513 1514 1515 1515 1516 1516 1515 1515 1515 1515 1515 1514 1515 1515 1515 1514 1514 1514 1513 1513 1513
1497 1497 1497 1497 1498 1498 1499 1500 1501 1501 1501 1502 1503 1504 1505 1505 1506 1507 1508 1509 1510 1510 1511 1511 1512 1512 1512 1512 1512 1512 1512 1512 1512 1512 1512 1512 1512 1512 1511 1511 1511 1511 1511
1494 1494 1494 1493 1494 1494 1495 1496 1497 1498 1498 1499 1500 1501 1502 1502 1503 1504 1505 1506 1506 1507 1508 1508 1508 1508 1509 1509 1509 1509 1509 1509 1509 1509 1509 1509 1509 1509 1508 1508 1508 1508 1508
1491 1491 1490 1490 1490 1491 1491 1492 1494 1494 1495 1496 1497 1498 1499 1499 1500 1500 1501 1502 1503 1503 1504 1505 1505 1505 1505 1506 1506 1506 1506 1506 1506 1506 1505 1505 1505 1505 1505 1505 1505 1505 1505
1488 1487 1487 1487 1487 1487 1488 1489 1490 1491 1491 1492 1494 1495 1496 1496 1497 1497 1498 1498 1499 1500 1500 1501 1501 1502 1502 1502 1503 1503 1503 1503 1502 1502 1502 1502 1502 1502 1502 1502 1502 1502 1502
1485 1485 1484 1484 1484 1484 1485 1486 1487 1488 1488 1489 1491 1491 1492 1493 1494 1494 1494 1495 1496 1496 1497 1497 1498 1498 1499 1499 1499 1499 1499 1499 1500 1500 1499 1499 1499 1499 1499 1498 1499 1499 1499
1482 1482 1482 1481 1481 1481 1482 1482 1483 1484 1485 1486 1487 1488 1489 1490 1490 1491 1491 1492 1492 1492 1493 1494 1494 1495 1495 1496 1495 1496 1496 1496 1496 1496 1496 1496 1496 1496 1496 1496 1495 1495 1496
1479 1479 1478 1478 1478 1478 1478 1479 1480 1481 1482 1483 1484 1485 1485 1486 1487 1487 1488 1488 1489 1489 1489 1490 1491 1491 1492 1492 1492 1492 1492 1492 1492 1492 1492 1492 1493 1493 1493 1492 1492 1492 1491
1476 1476 1475 1475 1475 1475 1475 1476 1477 1478 1478 1480 1480 1481 1482 1482 1483 1483 1484 1484 1485 1485 1486 1486 1487 1488 1488 1488 1488 1488 1488 1488 1488 1488 1488 1488 1488 1488 1489 1489 1489 1488 1488
1473 1473 1472 1472 1472 1472 1472 1473 1474 1475 1475 1476 1477 1478 1478 1479 1479 1480 1480 1481 1481 1482 1482 1482 1483 1483 1484 1484 1485 1485 1485 1485 1485 1484 1484 1484 1484 1485 1485 1485 1485 1486 1485
1470 1469 1469 1469 1469 1469 1469 1469 1470 1471 1472 1472 1473 1474 1475 1475 1476 1476 1477 1478 1478 1478 1478 1479 1479 1480 1480 1480 1481 1481 1481 1481 1481 1481 1481 1481 1481 1481 1482 1482 1482 1482 1482
1466 1466 1466 1466 1466 1466 1466 1466 1467 1467 1468 1468 1469 1470 1471 1472 1472 1473 1473 1474 1474 1475 1475 1475 1476 1476 1476 1477 1477 1478 1478 1478 1477 1477 1477 1477 1478 1478 1478 1478 1478 1478 1478
1464 1463 1463 1463 1463 1463 1463 1463 1464 1464 1464 1465 1466 1466 1467 1468 1468 1469 1469 1470 1471 1471 1472 1472 1472 1473 1473 1473 1473 1474 1474 1474 1474 1474 1474 1475 1475 1475 1475 1475 1474 1474 1474
1461 1461 1460 1460 1460 1460 1460 1460 1460 1461 1461 1462 1462 1463 1463 1463 1464 1465 1465 1466 1467 1467 1468 1468 1469 1469 1469 1469 1470 1470 1471 1471 1471 1471 1471 1472 1472 1472 1471 1471 1471 1471 1470
1458 1458 1458 1458 1458 1457 1457 1457 1457 1458 1458 1458 1459 1459 1459 1460 1461 1461 1461 1462 1463 1464 1464 1464 1465 1465 1465 1466 1466 1467 1467 1468 1468 1468 1468 1468 1468 1468 1468 1468 1468 1468 1467
1455 1455 1455 1455 1455 1455 1454 1454 1454 1454 1455 1455 1455 1455 1456 1456 1457 1457 1458 1458 1459 1460 1460 1461 1461 1462 1462 1463 1463 1464 1464 1464 1465 1465 1465 1465 1465 1465 1465 1465 1465 1464 1464
1452 1452 1452 1451 1451 1451 1451 1451 1451 1451 1451 1451 1452 1452 1452 1453 1453 1454 1454 1455 1455 1456 1456 1457 1458 1459 1459 1459 1460 1460 1461 1461 1461 1461 1461 1461 1462 1462 1462 1461 1461 1461 1461
1449 1448 1448 1448 1448 1448 1448 1448 1448 1448 1448 1447 1448 1448 1449 1449 1450 1450 1450 1451 1451 1451 1453 1454 1455 1455 1456 1456 1456 1457 1458 1458 1458 1458 1458 1458 1458 1458 1458 1458 1458 1458 1458
1445 1445 1444 1444 1444 1445 1445 1444 1444 1444 1444 1444 1444 1444 1445 1445 1445 1446 1446 1447 1447 1448 1449 1450 1451 1451 1452 1453 1453 1454 1454 1454 1454 1455 1455 1455 1455 1455 1455 1455 1455 1454 1454
1442 1441 1441 1441 1441 1441 1441 1441 1441 1441 1441 1441 1441 1441 1441 1441 1441 1442 1442 1443 1444 1444 1445 1446 1447 1447 1448 1449 1449 1450 1450 1451 1451 1451 1451 1451 1451 1451 1451 1451 1451 1451 1451
1438 1438 1438 1437 1437 1437 1437 1438 1437 1437 1437 1437 1437 1437 1438 1438 1438 1438 1439 1439 1440 1441 1442 1442 1443 1443 1444 1445 1445 1446 1446 1447 1447 1448 1448 1448 1448 1448 1448 1448 1448 1448 1448
1435 1434 1434 1434 1434 1434 1434 1434 1433 1433 1433 1433 1433 1433 1434 1434 1434 1435 1435 1436 1437 1437 1438 1439 1439 1440 1441 1441 1442 1442 1443 1443 1444 1444 1444 1444 1445 1445 1444 1444 1444 1444 1444
1431 1431 1431 1431 1431 1430 1430 1430 1430 1429 1429 1429 1429 1430 1430 1431 1431 1431 1432 1432 1433 1434 1435 1435 1436 1437 1437 1438 1438 1439 1439 1440 1441 1441 1442 1442 1442 1441 1441 1441 1441 1441 1441
1427 1427 1427 1427 1427 1427 1427 1426 1426 1426 1426 1426 1426 1426 1427 1427 1428 1428 1429 1429 1430 1431 1432 1432 1433 1434 1434 1435 1435 1435 1436 1437 1437 1438 1438 1439 1439 1438 1438 1438 1438 1438 1438
1424 1424 1424 1424 1424 1424 1423 1423 1423 1423 1422 1422 1423 1423 1423 1424 1424 1425 1426 1426 1427 1428 1429 1429 1430 1431 1432 1432 1432 1432 1433 1433 1434 1435 1435 1435 1435 1435 1435 1435 1435 1435 1435